Regional Weather Roundup
Issued by NWS

Home | Current Version | Previous Version | Graphics & Text | Print | Product List | Glossary On
Versions: 1 2 3 4 5 6 7 8 9 10 11 12 13 14 15 16 17 18 19 20 21 22 23 24 25 26 27 28 29 30 31 32 33 34 35 36 37 38 39 40 41 42 43 44 45 46 47 48 49 50
000
ASUS43 KFSD 212310
RWRSD

WEATHER ROUNDUP FOR SOUTH DAKOTA
NATIONAL WEATHER SERVICE SIOUX FALLS SD
600 PM CDT SUN SEP 21 2014

NOTE: "FAIR" INDICATES FEW OR NO CLOUDS BELOW 12,000 FEET WITH NO
SIGNIFICANT WEATHER AND/OR OBSTRUCTIONS TO VISIBILITY.


SDZ001>005-009-010-012>017-220000-
NORTHWEST AND NORTH CENTRAL SOUTH DAKOTA

CITY           SKY/WX    TMP DP  RH WIND       PRES   REMARKS
BUFFALO          N/A     73  33  23 CALM      30.18F
FAITH            N/A     72  35  25 CALM      30.25F
MOBRIDGE       SUNNY     72  45  37 NE5       30.22S
$$

SDZ012>016-024>037-041>051-057-063-072>074-220000-
SOUTHWEST AND SOUTH CENTRAL SOUTH DAKOTA

CITY           SKY/WX    TMP DP  RH WIND       PRES   REMARKS
RAPID CTY ARPT SUNNY     73  37  27 SE12      30.25F
PIERRE         SUNNY     72  41  32 W6        30.23S
CUSTER         SUNNY     65  34  31 SE9       30.34F
ELLSWORTH AFB  SUNNY     73  38  27 SE6       30.25F
PHILIP         SUNNY     76  34  21 VRB3      30.24F
PINE RIDGE     SUNNY     73  38  27 E6        30.27F
WINNER         FAIR      74  38  27 CALM      30.25F
$$

SDZ004>011-016>023-039-040-220000-
NORTHEAST SOUTH DAKOTA

CITY           SKY/WX    TMP DP  RH WIND       PRES   REMARKS
ABERDEEN       SUNNY     70  46  42 N6        30.22F
WATERTOWN      PTSUNNY   67  45  45 N10       30.23S
SISSETON         N/A     68  48  48 N9        30.21S
$$

SDZ017-020-022-023-036>040-048>070-220000-
SOUTHEAST SOUTH DAKOTA

CITY           SKY/WX    TMP DP  RH WIND       PRES   REMARKS
SIOUX FALLS    MOSUNNY   70  45  40 N9        30.22S
HURON          SUNNY     71  44  37 N5        30.23S
CHAMBERLAIN    SUNNY     72  41  32 NE3       30.24S
MITCHELL       SUNNY     71  44  37 NW9       30.24S
YANKTON        SUNNY     70  45  40 N10       30.23S
$$

ABBREVIATIONS USED IN REMARKS
   TC - TEMPERATURE IN CELSIUS
  WCI - WIND CHILL INDEX
   HX - HEAT INDEX
  VSB - VISIBILITY



USA.gov is the U.S. government's official web portal to all federal, state and local government web resources and services.